Flag for China Weather past 2 weeks in Hohhot, Inner Mongolia, China

Now
70 °F

Passing clouds.


Feels Like: 70 °F
Forecast: 47 / 74 °F
Wind: 6 mph from Northwest

Location: Hohhot Airport

Current Time: Aug 23, 2014 at 7:38:19 PM

Latest Report: Aug 23, 2014 at 7:00 PM


Visibility: N/A

Pressure: 29.92 "Hg

Humidity: 50%

Dew point: 50 °F

Location of HohhotLocation

Historic Weather in Hohhot — Graph

°F

Hohhot temperature yesterday

Maximum temperature yesterday: 68 °F (at 4:00 PM)
Minimum temperature yesterday: 61 °F (at 9:00 AM)
Average temperature yesterday: 64 °F

Past Weeks' High & Low Weather Summary

 TemperatureHumidityPressure
High86 °F (Aug 20, 5:00 PM)100% (Aug 10, 2:00 AM)30.09 "Hg (Aug 10, 2:00 AM)
Low52 °F (Aug 10, 4:00 AM)24% (Aug 13, 4:00 PM)29.77 "Hg (Aug 9, 3:00 PM)
Average68 °F65%29.92 "Hg
* Reported Aug 8 6:00 PM — Aug 23 6:00 PM, Hohhot, Weather by CustomWeather, © 2014

Note: Actual official high and low records may vary slightly from our data, if they occured in-between our weather recording intervals... More about our weather records

Advertising

Hohhot weather history for previous 24 hours

 ConditionsComfort  
Time TempWeatherWind HumidityBarometerVisibility
6:00 PM
Aug 23
72 °FPassing clouds.10 mph47%29.92 "HgN/A
5:00 PM72 °FScattered clouds.10 mph50%29.92 "HgN/A
4:00 PM73 °FThunderstorms. Scattered clouds.10 mph47%29.92 "HgN/A
3:00 PM73 °FThunderstorms. Scattered clouds.8 mph47%29.89 "HgN/A
2:00 PM73 °FScattered clouds.8 mph47%29.92 "HgN/A
1:00 PM75 °FPassing clouds.8 mph44%29.92 "HgN/A
12:00 PM72 °FPassing clouds.8 mph50%29.92 "HgN/A
11:00 AM70 °FPassing clouds.6 mph57%29.95 "HgN/A
10:00 AM70 °FSunny.13 mph60%29.95 "Hg10 mi
9:00 AM66 °FSunny.8 mph64%29.92 "Hg10 mi
8:00 AM63 °FFog.1 mph88%29.95 "Hg3 mi
7:00 AM57 °FFog.1 mph100%29.92 "Hg2 mi
6:00 AM55 °FFog.1 mph100%29.92 "Hg2 mi
5:00 AM55 °FFog.1 mph100%29.89 "Hg2 mi
4:00 AM55 °FFog.1 mph100%29.89 "Hg2 mi
3:00 AM59 °FFog.1 mph100%29.89 "Hg2 mi
2:00 AM59 °FFog.1 mph100%29.92 "Hg2 mi
1:00 AM61 °FFog.No wind94%29.92 "Hg2 mi
12:00 AM59 °FFog.1 mph100%29.92 "Hg2 mi
11:00 PM
Aug 22
61 °FFog.3 mph100%29.89 "Hg2 mi
10:00 PM63 °FFog.1 mph100%29.89 "Hg2 mi
9:00 PM64 °FFog.3 mph94%29.89 "Hg2 mi
8:00 PM66 °FPassing clouds.3 mph88%29.89 "Hg4 mi
7:00 PM68 °FPassing clouds.1 mph78%29.83 "HgN/A
Weather by CustomWeather, © 2014

See weather overviewHow to use our weather pages